Simultaneous Nadir Overpasses (SNOs) Predictions

Prediction of SNOs over PacNW region [( 10.00, 139.50) to ( 22.70, 165.60)] between AQUA and NPP Satellites:

Table of predicted SNOs over PacNW region for the next 30.0 days since TLE Epoch: 6/7/2019
Index Date (AQUA) Time (AQUA) AQUA Lat,Lon Date (NPP) Time (NPP) NPP Lat,Lon Distance(km) Time Diff (sec)
1 06/15/2019 15:09:55 22.59, 159.85 06/15/2019 15:11:11 23.18, 157.20 278.71 76
2 06/18/2019 03:31:45 22.68, 147.53 06/18/2019 03:28:15 25.47, 145.01 402.33 210
3 06/23/2019 15:59:18 22.59, 147.49 06/23/2019 16:01:57 23.26, 144.53 312.48 159
4 07/01/2019 15:09:48 22.61, 159.86 07/01/2019 15:11:16 23.21, 157.20 281.25 88
5 07/04/2019 03:31:36 22.68, 147.55 07/04/2019 03:28:06 24.71, 145.20 328.75 210




NCC Satellite Simultaneous Nadir Overpasses (SNOs) Prediction Service
